Volver al catálogo

STARLINK-34483

ActivoComunicacionesVLEO
NORAD 64367·PAYLOAD·🇺🇸 United States

Lanzado Jun 13, 2025 desde Vandenberg Space Force Base

Loading…

Próximos Pases (próximas 24 horas)

TLE

ActualizadoSource: CelesTrak SupGP

Época: Sep 15, 2026, 03:48 UTC

1 64367C 25126Z   26258.15881944 -.00032201  00000+0 -11201-2 0  2589
2 64367  70.0009 274.8647 0003880 270.2262 293.1872 15.29595644    15

Sigue STARLINK-34483 en tiempo real con AllMySat

Download on the App Store